Year,Month,Day,Hour,Minute,Value (Times are PST for temperature in C)
2017,05,27,00,00,14.80
2017,05,27,00,01,14.80
2017,05,27,00,02,14.80
2017,05,27,00,03,14.70
2017,05,27,00,04,14.70
2017,05,27,00,05,14.70
2017,05,27,00,06,14.70
2017,05,27,00,07,14.70
2017,05,27,00,08,14.70
2017,05,27,00,09,14.60
2017,05,27,00,10,14.60
2017,05,27,00,11,14.60
2017,05,27,00,12,14.60
2017,05,27,00,13,14.60
2017,05,27,00,14,14.60
2017,05,27,00,15,14.60
2017,05,27,00,16,14.60
2017,05,27,00,17,14.50
2017,05,27,00,18,14.50
2017,05,27,00,19,14.50
2017,05,27,00,20,14.50
2017,05,27,00,21,14.50
2017,05,27,00,22,14.50
2017,05,27,00,23,14.40
2017,05,27,00,24,14.40
2017,05,27,00,25,14.40
2017,05,27,00,26,14.40
2017,05,27,00,27,14.30
2017,05,27,00,28,14.30
2017,05,27,00,29,14.30
2017,05,27,00,30,14.20
2017,05,27,00,31,14.20
2017,05,27,00,32,14.20
2017,05,27,00,33,14.20
2017,05,27,00,34,14.20
2017,05,27,00,35,14.20
2017,05,27,00,36,14.20
2017,05,27,00,37,14.10
2017,05,27,00,38,14.10
2017,05,27,00,39,14.10
2017,05,27,00,40,14.00
2017,05,27,00,41,14.00
2017,05,27,00,42,14.00
2017,05,27,00,43,14.00
2017,05,27,00,44,14.00
2017,05,27,00,45,14.00
2017,05,27,00,46,13.90
2017,05,27,00,47,13.90
2017,05,27,00,48,13.90
2017,05,27,00,49,13.90
2017,05,27,00,50,13.90
2017,05,27,00,51,13.90
2017,05,27,00,52,13.90
2017,05,27,00,53,13.90
2017,05,27,00,54,13.80
2017,05,27,00,55,13.80
2017,05,27,00,56,13.80
2017,05,27,00,57,13.80
2017,05,27,00,58,13.80
2017,05,27,00,59,13.80
2017,05,27,01,00,13.80
2017,05,27,01,01,13.80
2017,05,27,01,02,13.80
2017,05,27,01,03,13.80
2017,05,27,01,04,13.80
2017,05,27,01,05,13.80
2017,05,27,01,06,13.80
2017,05,27,01,07,13.80
2017,05,27,01,08,13.80
2017,05,27,01,09,13.70
2017,05,27,01,10,13.70
2017,05,27,01,11,13.70
2017,05,27,01,12,13.70
2017,05,27,01,13,13.70
2017,05,27,01,14,13.70
2017,05,27,01,15,13.70
2017,05,27,01,16,13.70
2017,05,27,01,17,13.70
2017,05,27,01,18,13.60
2017,05,27,01,19,13.60
2017,05,27,01,20,13.60
2017,05,27,01,21,13.60
2017,05,27,01,22,13.50
2017,05,27,01,23,13.50
2017,05,27,01,24,13.50
2017,05,27,01,25,13.50
2017,05,27,01,26,13.50
2017,05,27,01,27,13.50
2017,05,27,01,28,13.50
2017,05,27,01,29,13.50
2017,05,27,01,30,13.50
2017,05,27,01,31,13.40
2017,05,27,01,32,13.40
2017,05,27,01,33,13.40
2017,05,27,01,34,13.40
2017,05,27,01,35,13.40
2017,05,27,01,36,13.30
2017,05,27,01,37,13.30
2017,05,27,01,38,13.30
2017,05,27,01,39,13.30
2017,05,27,01,40,13.30
2017,05,27,01,41,13.30
2017,05,27,01,42,13.30
2017,05,27,01,43,13.30
2017,05,27,01,44,13.30
2017,05,27,01,45,13.30
2017,05,27,01,46,13.30
2017,05,27,01,47,13.30
2017,05,27,01,48,13.30
2017,05,27,01,49,13.30
2017,05,27,01,50,13.30
2017,05,27,01,51,13.20
2017,05,27,01,52,13.20
2017,05,27,01,53,13.20
2017,05,27,01,54,13.20
2017,05,27,01,55,13.20
2017,05,27,01,56,13.20
2017,05,27,01,57,13.20
2017,05,27,01,58,13.20
2017,05,27,01,59,13.20
2017,05,27,02,00,13.20
2017,05,27,02,01,13.20
2017,05,27,02,02,13.20
2017,05,27,02,03,13.20
2017,05,27,02,04,13.20
2017,05,27,02,05,13.10
2017,05,27,02,06,13.10
2017,05,27,02,07,13.10
2017,05,27,02,08,13.10
2017,05,27,02,09,13.00
2017,05,27,02,10,13.00
2017,05,27,02,11,13.00
2017,05,27,02,12,13.00
2017,05,27,02,13,12.90
2017,05,27,02,14,12.90
2017,05,27,02,15,12.90
2017,05,27,02,16,12.90
2017,05,27,02,17,12.90
2017,05,27,02,18,12.90
2017,05,27,02,19,12.90
2017,05,27,02,20,12.90
2017,05,27,02,21,12.90
2017,05,27,02,22,12.90
2017,05,27,02,23,12.80
2017,05,27,02,24,12.80
2017,05,27,02,25,12.80
2017,05,27,02,26,12.80
2017,05,27,02,27,12.80
2017,05,27,02,28,12.80
2017,05,27,02,29,12.80
2017,05,27,02,30,12.80
2017,05,27,02,31,12.80
2017,05,27,02,32,12.80
2017,05,27,02,33,12.80
2017,05,27,02,34,12.80
2017,05,27,02,35,12.80
2017,05,27,02,36,12.80
2017,05,27,02,37,12.80
2017,05,27,02,38,12.80
2017,05,27,02,39,12.80
2017,05,27,02,40,12.70
2017,05,27,02,41,12.70
2017,05,27,02,42,12.70
2017,05,27,02,43,12.70
2017,05,27,02,44,12.70
2017,05,27,02,45,12.60
2017,05,27,02,46,12.60
2017,05,27,02,47,12.60
2017,05,27,02,48,12.60
2017,05,27,02,49,12.60
2017,05,27,02,50,12.60
2017,05,27,02,51,12.50
2017,05,27,02,52,12.50
2017,05,27,02,53,12.50
2017,05,27,02,54,12.50
2017,05,27,02,55,12.50
2017,05,27,02,56,12.50
2017,05,27,02,57,12.50
2017,05,27,02,58,12.40
2017,05,27,02,59,12.40
2017,05,27,03,00,12.40
2017,05,27,03,01,12.30
2017,05,27,03,02,12.30
2017,05,27,03,03,12.30
2017,05,27,03,04,12.30
2017,05,27,03,05,12.30
2017,05,27,03,06,12.30
2017,05,27,03,07,12.30
2017,05,27,03,08,12.20
2017,05,27,03,09,12.20
2017,05,27,03,10,12.20
2017,05,27,03,11,12.20
2017,05,27,03,12,12.20
2017,05,27,03,13,12.10
2017,05,27,03,14,12.10
2017,05,27,03,15,12.10
2017,05,27,03,16,12.10
2017,05,27,03,17,12.10
2017,05,27,03,18,12.10
2017,05,27,03,19,12.10
2017,05,27,03,20,12.10
2017,05,27,03,21,12.10
2017,05,27,03,22,12.10
2017,05,27,03,23,12.10
2017,05,27,03,24,12.10
2017,05,27,03,25,12.20
2017,05,27,03,26,12.20
2017,05,27,03,27,12.20
2017,05,27,03,28,12.20
2017,05,27,03,29,12.20
2017,05,27,03,30,12.20
2017,05,27,03,31,12.20
2017,05,27,03,32,12.20
2017,05,27,03,33,12.20
2017,05,27,03,34,12.30
2017,05,27,03,35,12.30
2017,05,27,03,36,12.30
2017,05,27,03,37,12.30
2017,05,27,03,38,12.30
2017,05,27,03,39,12.30
2017,05,27,03,40,12.30
2017,05,27,03,41,12.30
2017,05,27,03,42,12.30
2017,05,27,03,43,12.20
2017,05,27,03,44,12.20
2017,05,27,03,45,12.20
2017,05,27,03,46,12.20
2017,05,27,03,47,12.20
2017,05,27,03,48,12.20
2017,05,27,03,49,12.20
2017,05,27,03,50,12.20
2017,05,27,03,51,12.20
2017,05,27,03,52,12.20
2017,05,27,03,53,12.20
2017,05,27,03,54,12.20
2017,05,27,03,55,12.20
2017,05,27,03,56,12.20
2017,05,27,03,57,12.20
2017,05,27,03,58,12.10
2017,05,27,03,59,12.10
2017,05,27,04,00,12.20
2017,05,27,04,01,12.20
2017,05,27,04,02,12.10
2017,05,27,04,03,12.10
2017,05,27,04,04,12.10
2017,05,27,04,05,12.10
2017,05,27,04,06,12.00
2017,05,27,04,07,12.00
2017,05,27,04,08,12.00
2017,05,27,04,09,12.00
2017,05,27,04,10,11.90
2017,05,27,04,11,11.90
2017,05,27,04,12,11.90
2017,05,27,04,13,11.90
2017,05,27,04,14,11.90
2017,05,27,04,15,11.80
2017,05,27,04,16,11.80
2017,05,27,04,17,11.80
2017,05,27,04,18,11.80
2017,05,27,04,19,11.80
2017,05,27,04,20,11.80
2017,05,27,04,21,11.80
2017,05,27,04,22,11.80
2017,05,27,04,23,11.80
2017,05,27,04,24,11.80
2017,05,27,04,25,11.80
2017,05,27,04,26,11.80
2017,05,27,04,27,11.80
2017,05,27,04,28,11.80
2017,05,27,04,29,11.80
2017,05,27,04,30,11.80
2017,05,27,04,31,11.80
2017,05,27,04,32,11.80
2017,05,27,04,33,11.80
2017,05,27,04,34,11.80
2017,05,27,04,35,11.80
2017,05,27,04,36,11.70
2017,05,27,04,37,11.70
2017,05,27,04,38,11.70
2017,05,27,04,39,11.70
2017,05,27,04,40,11.60
2017,05,27,04,41,11.60
2017,05,27,04,42,11.60
2017,05,27,04,43,11.60
2017,05,27,04,44,11.60
2017,05,27,04,45,11.60
2017,05,27,04,46,11.50
2017,05,27,04,47,11.40
2017,05,27,04,48,11.40
2017,05,27,04,49,11.40
2017,05,27,04,50,11.40
2017,05,27,04,51,11.40
2017,05,27,04,52,11.30
2017,05,27,04,53,11.30
2017,05,27,04,54,11.30
2017,05,27,04,55,11.30
2017,05,27,04,56,11.20
2017,05,27,04,57,11.20
2017,05,27,04,58,11.20
2017,05,27,04,59,11.20
2017,05,27,05,00,11.20
2017,05,27,05,01,11.20
2017,05,27,05,02,11.20
2017,05,27,05,03,11.10
2017,05,27,05,04,11.10
2017,05,27,05,05,11.10
2017,05,27,05,06,11.10
2017,05,27,05,07,11.10
2017,05,27,05,08,11.10
2017,05,27,05,09,11.10
2017,05,27,05,10,11.10
2017,05,27,05,11,11.10
2017,05,27,05,12,11.10
2017,05,27,05,13,11.10
2017,05,27,05,14,11.10
2017,05,27,05,15,11.10
2017,05,27,05,16,11.10
2017,05,27,05,17,11.10
2017,05,27,05,18,11.10
2017,05,27,05,19,11.10
2017,05,27,05,20,10.90
2017,05,27,05,21,10.90
2017,05,27,05,22,10.90
2017,05,27,05,23,10.90
2017,05,27,05,24,10.90
2017,05,27,05,25,10.90
2017,05,27,05,26,10.90
2017,05,27,05,27,11.00
2017,05,27,05,28,11.10
2017,05,27,05,29,11.10
2017,05,27,05,30,11.10
2017,05,27,05,31,11.10
2017,05,27,05,32,11.00
2017,05,27,05,33,10.90
2017,05,27,05,34,10.90
2017,05,27,05,35,10.90
2017,05,27,05,36,10.90
2017,05,27,05,37,10.90
2017,05,27,05,38,10.90
2017,05,27,05,39,10.90
2017,05,27,05,40,10.90
2017,05,27,05,41,10.90
2017,05,27,05,42,10.90
2017,05,27,05,43,10.90
2017,05,27,05,44,10.90
2017,05,27,05,45,10.90
2017,05,27,05,46,10.90
2017,05,27,05,47,10.90
2017,05,27,05,48,10.90
2017,05,27,05,49,10.90
2017,05,27,05,50,10.90
2017,05,27,05,51,10.90
2017,05,27,05,52,10.90
2017,05,27,05,53,10.90
2017,05,27,05,54,10.90
2017,05,27,05,55,10.90
2017,05,27,05,56,10.90
2017,05,27,05,57,10.90
2017,05,27,05,58,10.90
2017,05,27,05,59,10.90
2017,05,27,06,00,10.80
2017,05,27,06,01,10.80
2017,05,27,06,02,10.80
2017,05,27,06,03,10.80
2017,05,27,06,04,10.80
2017,05,27,06,05,10.80
2017,05,27,06,06,10.80
2017,05,27,06,07,10.90
2017,05,27,06,08,10.90
2017,05,27,06,09,10.90
2017,05,27,06,10,10.90
2017,05,27,06,11,10.90
2017,05,27,06,12,10.90
2017,05,27,06,13,10.90
2017,05,27,06,14,10.90
2017,05,27,06,15,10.90
2017,05,27,06,16,10.90
2017,05,27,06,17,11.00
2017,05,27,06,18,11.10
2017,05,27,06,19,11.10
2017,05,27,06,20,11.10
2017,05,27,06,21,11.10
2017,05,27,06,22,11.10
2017,05,27,06,23,11.20
2017,05,27,06,24,11.20
2017,05,27,06,25,11.30
2017,05,27,06,26,11.30
2017,05,27,06,27,11.40
2017,05,27,06,28,11.40
2017,05,27,06,29,11.40
2017,05,27,06,30,11.50
2017,05,27,06,31,11.60
2017,05,27,06,32,11.60
2017,05,27,06,33,11.60
2017,05,27,06,34,11.60
2017,05,27,06,35,11.70
2017,05,27,06,36,11.70
2017,05,27,06,37,11.80
2017,05,27,06,38,11.80
2017,05,27,06,39,11.80
2017,05,27,06,40,11.80
2017,05,27,06,41,11.80
2017,05,27,06,42,11.80
2017,05,27,06,43,11.90
2017,05,27,06,44,11.90
2017,05,27,06,45,11.90
2017,05,27,06,46,12.00
2017,05,27,06,47,12.00
2017,05,27,06,48,12.00
2017,05,27,06,49,12.00
2017,05,27,06,50,12.10
2017,05,27,06,51,12.10
2017,05,27,06,52,12.10
2017,05,27,06,53,12.10
2017,05,27,06,54,12.20
2017,05,27,06,55,12.20
2017,05,27,06,56,12.20
2017,05,27,06,57,12.30
2017,05,27,06,58,12.30
2017,05,27,06,59,12.30
2017,05,27,07,00,12.30
2017,05,27,07,01,12.30
2017,05,27,07,02,12.30
2017,05,27,07,03,12.30
2017,05,27,07,04,12.30
2017,05,27,07,05,12.30
2017,05,27,07,06,12.30
2017,05,27,07,07,12.30
2017,05,27,07,08,12.30
2017,05,27,07,09,12.60
2017,05,27,07,10,13.10
2017,05,27,07,11,13.20
2017,05,27,07,12,13.30
2017,05,27,07,13,13.40
2017,05,27,07,14,13.50
2017,05,27,07,15,13.60
2017,05,27,07,16,13.60
2017,05,27,07,17,13.60
2017,05,27,07,18,13.70
2017,05,27,07,19,13.70
2017,05,27,07,20,13.80
2017,05,27,07,21,13.90
2017,05,27,07,22,13.90
2017,05,27,07,23,14.00
2017,05,27,07,24,14.10
2017,05,27,07,25,14.20
2017,05,27,07,26,14.20
2017,05,27,07,27,14.20
2017,05,27,07,28,14.20
2017,05,27,07,29,14.30
2017,05,27,07,30,14.30
2017,05,27,07,31,14.30
2017,05,27,07,32,14.30
2017,05,27,07,33,14.30
2017,05,27,07,34,14.40
2017,05,27,07,35,14.40
2017,05,27,07,36,14.50
2017,05,27,07,37,14.60
2017,05,27,07,38,14.60
2017,05,27,07,39,14.70
2017,05,27,07,40,14.70
2017,05,27,07,41,14.80
2017,05,27,07,42,14.90
2017,05,27,07,43,14.90
2017,05,27,07,44,15.00
2017,05,27,07,45,15.00
2017,05,27,07,46,15.10
2017,05,27,07,47,15.10
2017,05,27,07,48,15.10
2017,05,27,07,49,15.20
2017,05,27,07,50,15.20
2017,05,27,07,51,15.30
2017,05,27,07,52,15.40
2017,05,27,07,53,15.50
2017,05,27,07,54,15.50
2017,05,27,07,55,15.60
2017,05,27,07,56,15.70
2017,05,27,07,57,15.70
2017,05,27,07,58,15.80
2017,05,27,07,59,15.80
2017,05,27,08,00,15.90
2017,05,27,08,01,16.00
2017,05,27,08,02,16.10
2017,05,27,08,03,16.20
2017,05,27,08,04,16.30
2017,05,27,08,05,16.30
2017,05,27,08,06,16.40
2017,05,27,08,07,16.40
2017,05,27,08,08,16.40
2017,05,27,08,09,16.50
2017,05,27,08,10,16.60
2017,05,27,08,11,16.70
2017,05,27,08,12,16.70
2017,05,27,08,13,16.80
2017,05,27,08,14,16.90
2017,05,27,08,15,16.90
2017,05,27,08,16,17.00
2017,05,27,08,17,17.10
2017,05,27,08,18,17.20
2017,05,27,08,19,17.30
2017,05,27,08,20,17.30
2017,05,27,08,21,17.30
2017,05,27,08,22,17.30
2017,05,27,08,23,17.30
2017,05,27,08,24,17.30
2017,05,27,08,25,17.30
2017,05,27,08,26,17.30
2017,05,27,08,27,17.30
2017,05,27,08,28,17.30
2017,05,27,08,29,17.30
2017,05,27,08,30,17.30
2017,05,27,08,31,17.40
2017,05,27,08,32,17.50
2017,05,27,08,33,17.50
2017,05,27,08,34,17.60
2017,05,27,08,35,17.60
2017,05,27,08,36,17.70
2017,05,27,08,37,17.70
2017,05,27,08,38,17.80
2017,05,27,08,39,17.90
2017,05,27,08,40,18.00
2017,05,27,08,41,18.10
2017,05,27,08,42,18.30
2017,05,27,08,43,18.40
2017,05,27,08,44,18.60
2017,05,27,08,45,18.70
2017,05,27,08,46,18.80
2017,05,27,08,47,18.80
2017,05,27,08,48,18.90
2017,05,27,08,49,19.00
2017,05,27,08,50,19.10
2017,05,27,08,51,19.10
2017,05,27,08,52,19.20
2017,05,27,08,53,19.00
2017,05,27,08,54,18.80
2017,05,27,08,55,18.60
2017,05,27,08,56,18.50
2017,05,27,08,57,18.40
2017,05,27,08,58,18.30
2017,05,27,08,59,18.20
2017,05,27,09,00,18.20
2017,05,27,09,01,18.20
2017,05,27,09,02,18.30
2017,05,27,09,03,18.30
2017,05,27,09,04,18.40
2017,05,27,09,05,18.40
2017,05,27,09,06,18.50
2017,05,27,09,07,18.50
2017,05,27,09,08,18.50
2017,05,27,09,09,18.50
2017,05,27,09,10,18.50
2017,05,27,09,11,18.60
2017,05,27,09,12,18.60
2017,05,27,09,13,18.70
2017,05,27,09,14,18.70
2017,05,27,09,15,18.80
2017,05,27,09,16,18.90
2017,05,27,09,17,18.90
2017,05,27,09,18,19.10
2017,05,27,09,19,19.30
2017,05,27,09,20,19.40
2017,05,27,09,21,19.50
2017,05,27,09,22,19.60
2017,05,27,09,23,19.70
2017,05,27,09,24,19.80
2017,05,27,09,25,19.90
2017,05,27,09,26,20.00
2017,05,27,09,27,20.10
2017,05,27,09,28,20.20
2017,05,27,09,29,20.20
2017,05,27,09,30,20.20
2017,05,27,09,31,20.20
2017,05,27,09,32,20.20
2017,05,27,09,33,20.20
2017,05,27,09,34,20.20
2017,05,27,09,35,20.20
2017,05,27,09,36,20.20
2017,05,27,09,37,19.90
2017,05,27,09,38,19.50
2017,05,27,09,39,19.40
2017,05,27,09,40,19.20
2017,05,27,09,41,19.00
2017,05,27,09,42,18.90
2017,05,27,09,43,18.70
2017,05,27,09,44,18.60
2017,05,27,09,45,18.40
2017,05,27,09,46,18.10
2017,05,27,09,47,17.90
2017,05,27,09,48,17.80
2017,05,27,09,49,17.80
2017,05,27,09,50,17.70
2017,05,27,09,51,17.60
2017,05,27,09,52,17.50
2017,05,27,09,53,17.50
2017,05,27,09,54,17.40
2017,05,27,09,55,17.40
2017,05,27,09,56,17.30
2017,05,27,09,57,17.20
2017,05,27,09,58,17.20
2017,05,27,09,59,17.10
2017,05,27,10,00,17.00
2017,05,27,10,01,17.00
2017,05,27,10,02,16.80
2017,05,27,10,03,16.70
2017,05,27,10,04,16.70
2017,05,27,10,05,16.70
2017,05,27,10,06,16.70
2017,05,27,10,07,16.70
2017,05,27,10,08,16.70
2017,05,27,10,09,16.70
2017,05,27,10,10,16.80
2017,05,27,10,11,16.90
2017,05,27,10,12,17.00
2017,05,27,10,13,17.10
2017,05,27,10,14,17.10
2017,05,27,10,15,17.10
2017,05,27,10,16,17.20
2017,05,27,10,17,17.20
2017,05,27,10,18,17.20
2017,05,27,10,19,17.30
2017,05,27,10,20,17.20
2017,05,27,10,21,17.20
2017,05,27,10,22,17.20
2017,05,27,10,23,17.30
2017,05,27,10,24,17.30
2017,05,27,10,25,17.30
2017,05,27,10,26,17.30
2017,05,27,10,27,17.30
2017,05,27,10,28,17.20
2017,05,27,10,29,17.20
2017,05,27,10,30,17.20
2017,05,27,10,31,17.30
2017,05,27,10,32,17.30
2017,05,27,10,33,17.30
2017,05,27,10,34,17.30
2017,05,27,10,35,17.40
2017,05,27,10,36,17.50
2017,05,27,10,37,17.50
2017,05,27,10,38,17.60
2017,05,27,10,39,17.50
2017,05,27,10,40,17.60
2017,05,27,10,41,17.60
2017,05,27,10,42,17.50
2017,05,27,10,43,17.40
2017,05,27,10,44,17.40
2017,05,27,10,45,17.40
2017,05,27,10,46,17.30
2017,05,27,10,47,17.30
2017,05,27,10,48,17.30
2017,05,27,10,49,17.30
2017,05,27,10,50,17.20
2017,05,27,10,51,17.10
2017,05,27,10,52,17.10
2017,05,27,10,53,17.10
2017,05,27,10,54,17.10
2017,05,27,10,55,17.10
2017,05,27,10,56,17.20
2017,05,27,10,57,17.30
2017,05,27,10,58,17.30
2017,05,27,10,59,17.40
2017,05,27,11,00,17.50
2017,05,27,11,01,17.60
2017,05,27,11,02,17.60
2017,05,27,11,03,17.70
2017,05,27,11,04,17.60
2017,05,27,11,05,17.60
2017,05,27,11,06,17.60
2017,05,27,11,07,17.60
2017,05,27,11,08,17.70
2017,05,27,11,09,17.70
2017,05,27,11,10,17.80
2017,05,27,11,11,17.80
2017,05,27,11,12,17.90
2017,05,27,11,13,17.90
2017,05,27,11,14,18.10
2017,05,27,11,15,18.20
2017,05,27,11,16,18.40
2017,05,27,11,17,18.70
2017,05,27,11,18,19.00
2017,05,27,11,19,19.40
2017,05,27,11,20,19.70
2017,05,27,11,21,20.00
2017,05,27,11,22,20.20
2017,05,27,11,23,20.50
2017,05,27,11,24,20.70
2017,05,27,11,25,20.90
2017,05,27,11,26,21.10
2017,05,27,11,27,21.20
2017,05,27,11,28,21.20
2017,05,27,11,29,21.20
2017,05,27,11,30,21.20
2017,05,27,11,31,21.30
2017,05,27,11,32,21.40
2017,05,27,11,33,21.40
2017,05,27,11,34,21.40
2017,05,27,11,35,21.40
2017,05,27,11,36,21.50
2017,05,27,11,37,21.60
2017,05,27,11,38,21.60
2017,05,27,11,39,21.60
2017,05,27,11,40,21.70
2017,05,27,11,41,21.70
2017,05,27,11,42,21.70
2017,05,27,11,43,21.70
2017,05,27,11,44,21.70
2017,05,27,11,45,21.80
2017,05,27,11,46,21.80
2017,05,27,11,47,21.80
2017,05,27,11,48,21.50
2017,05,27,11,49,21.20
2017,05,27,11,50,20.80
2017,05,27,11,51,20.40
2017,05,27,11,52,20.00
2017,05,27,11,53,19.70
2017,05,27,11,54,19.40
2017,05,27,11,55,19.10
2017,05,27,11,56,18.90
2017,05,27,11,57,18.60
2017,05,27,11,58,18.40
2017,05,27,11,59,18.20
2017,05,27,12,00,18.20
2017,05,27,12,01,18.10
2017,05,27,12,02,18.10
2017,05,27,12,03,18.10
2017,05,27,12,04,18.10
2017,05,27,12,05,18.00
2017,05,27,12,06,17.90
2017,05,27,12,07,17.90
2017,05,27,12,08,17.90
2017,05,27,12,09,17.80
2017,05,27,12,10,17.80
2017,05,27,12,11,17.90
2017,05,27,12,12,18.00
2017,05,27,12,13,18.20
2017,05,27,12,14,18.20
2017,05,27,12,15,18.30
2017,05,27,12,16,18.30
2017,05,27,12,17,18.30
2017,05,27,12,18,18.30
2017,05,27,12,19,18.30
2017,05,27,12,20,18.20
2017,05,27,12,21,18.30
2017,05,27,12,22,18.30
2017,05,27,12,23,18.40
2017,05,27,12,24,18.40
2017,05,27,12,25,18.40
2017,05,27,12,26,18.20
2017,05,27,12,27,18.20
2017,05,27,12,28,18.10
2017,05,27,12,29,18.10
2017,05,27,12,30,18.10
2017,05,27,12,31,18.10
2017,05,27,12,32,18.20
2017,05,27,12,33,18.10
2017,05,27,12,34,17.90
2017,05,27,12,35,17.90
2017,05,27,12,36,17.90
2017,05,27,12,37,17.90
2017,05,27,12,38,17.90
2017,05,27,12,39,17.90
2017,05,27,12,40,17.90
2017,05,27,12,41,17.80
2017,05,27,12,42,17.80
2017,05,27,12,43,17.70
2017,05,27,12,44,17.60
2017,05,27,12,45,17.60
2017,05,27,12,46,17.70
2017,05,27,12,47,17.80
2017,05,27,12,48,17.90
2017,05,27,12,49,17.90
2017,05,27,12,50,17.90
2017,05,27,12,51,17.80
2017,05,27,12,52,17.70
2017,05,27,12,53,17.70
2017,05,27,12,54,17.70
2017,05,27,12,55,17.80
2017,05,27,12,56,17.80
2017,05,27,12,57,17.90
2017,05,27,12,58,17.90
2017,05,27,12,59,17.90
2017,05,27,13,00,17.90
2017,05,27,13,01,17.90
2017,05,27,13,02,17.80
2017,05,27,13,03,17.80
2017,05,27,13,04,17.80
2017,05,27,13,05,17.90
2017,05,27,13,06,17.90
2017,05,27,13,07,17.90
2017,05,27,13,08,17.90
2017,05,27,13,09,17.90
2017,05,27,13,10,17.90
2017,05,27,13,11,17.90
2017,05,27,13,12,17.90
2017,05,27,13,13,18.00
2017,05,27,13,14,18.10
2017,05,27,13,15,18.10
2017,05,27,13,16,18.10
2017,05,27,13,17,18.10
2017,05,27,13,18,18.20
2017,05,27,13,19,18.20
2017,05,27,13,20,18.20
2017,05,27,13,21,18.30
2017,05,27,13,22,18.30
2017,05,27,13,23,18.30
2017,05,27,13,24,18.40
2017,05,27,13,25,18.40
2017,05,27,13,26,18.40
2017,05,27,13,27,18.40
2017,05,27,13,28,18.50
2017,05,27,13,29,18.60
2017,05,27,13,30,18.60
2017,05,27,13,31,18.60
2017,05,27,13,32,18.50
2017,05,27,13,33,18.50
2017,05,27,13,34,18.60
2017,05,27,13,35,18.60
2017,05,27,13,36,18.60
2017,05,27,13,37,18.70
2017,05,27,13,38,18.70
2017,05,27,13,39,18.80
2017,05,27,13,40,18.80
2017,05,27,13,41,18.90
2017,05,27,13,42,18.90
2017,05,27,13,43,18.90
2017,05,27,13,44,19.00
2017,05,27,13,45,19.10
2017,05,27,13,46,19.20
2017,05,27,13,47,19.30
2017,05,27,13,48,19.30
2017,05,27,13,49,19.40
2017,05,27,13,50,19.50
2017,05,27,13,51,19.60
2017,05,27,13,52,19.70
2017,05,27,13,53,19.80
2017,05,27,13,54,19.80
2017,05,27,13,55,19.90
2017,05,27,13,56,19.90
2017,05,27,13,57,19.90
2017,05,27,13,58,19.90
2017,05,27,13,59,19.80
2017,05,27,14,00,19.80
2017,05,27,14,01,19.80
2017,05,27,14,02,19.70
2017,05,27,14,03,19.70
2017,05,27,14,04,19.60
2017,05,27,14,05,19.50
2017,05,27,14,06,19.50
2017,05,27,14,07,19.50
2017,05,27,14,08,19.50
2017,05,27,14,09,19.40
2017,05,27,14,10,19.50
2017,05,27,14,11,19.60
2017,05,27,14,12,19.60
2017,05,27,14,13,19.70
2017,05,27,14,14,19.80
2017,05,27,14,15,19.80
2017,05,27,14,16,19.90
2017,05,27,14,17,20.00
2017,05,27,14,18,20.10
2017,05,27,14,19,20.10
2017,05,27,14,20,20.20
2017,05,27,14,21,20.40
2017,05,27,14,22,20.50
2017,05,27,14,23,20.50
2017,05,27,14,24,20.60
2017,05,27,14,25,20.60
2017,05,27,14,26,20.70
2017,05,27,14,27,20.80
2017,05,27,14,28,20.80
2017,05,27,14,29,20.90
2017,05,27,14,30,21.00
2017,05,27,14,31,21.10
2017,05,27,14,32,21.30
2017,05,27,14,33,21.30
2017,05,27,14,34,21.40
2017,05,27,14,35,21.40
2017,05,27,14,36,21.30
2017,05,27,14,37,21.30
2017,05,27,14,38,21.20
2017,05,27,14,39,21.20
2017,05,27,14,40,21.20
2017,05,27,14,41,21.30
2017,05,27,14,42,21.40
2017,05,27,14,43,21.40
2017,05,27,14,44,21.40
2017,05,27,14,45,21.40
2017,05,27,14,46,21.50
2017,05,27,14,47,21.60
2017,05,27,14,48,21.40
2017,05,27,14,49,21.30
2017,05,27,14,50,21.20
2017,05,27,14,51,21.10
2017,05,27,14,52,21.20
2017,05,27,14,53,21.30
2017,05,27,14,54,21.30
2017,05,27,14,55,21.30
2017,05,27,14,56,21.30
2017,05,27,14,57,21.40
2017,05,27,14,58,21.50
2017,05,27,14,59,21.60
2017,05,27,15,00,21.60
2017,05,27,15,01,21.60
2017,05,27,15,02,21.60
2017,05,27,15,03,21.60
2017,05,27,15,04,21.40
2017,05,27,15,05,21.50
2017,05,27,15,06,21.60
2017,05,27,15,07,21.50
2017,05,27,15,08,21.40
2017,05,27,15,09,21.40
2017,05,27,15,10,21.40
2017,05,27,15,11,21.30
2017,05,27,15,12,21.30
2017,05,27,15,13,21.30
2017,05,27,15,14,21.30
2017,05,27,15,15,21.30
2017,05,27,15,16,21.40
2017,05,27,15,17,21.40
2017,05,27,15,18,21.50
2017,05,27,15,19,21.60
2017,05,27,15,20,21.50
2017,05,27,15,21,21.40
2017,05,27,15,22,21.50
2017,05,27,15,23,21.50
2017,05,27,15,24,21.50
2017,05,27,15,25,21.40
2017,05,27,15,26,21.40
2017,05,27,15,27,21.30
2017,05,27,15,28,21.30
2017,05,27,15,29,21.40
2017,05,27,15,30,21.40
2017,05,27,15,31,21.40
2017,05,27,15,32,21.40
2017,05,27,15,33,21.30
2017,05,27,15,34,21.40
2017,05,27,15,35,21.50
2017,05,27,15,36,21.50
2017,05,27,15,37,21.40
2017,05,27,15,38,21.30
2017,05,27,15,39,21.30
2017,05,27,15,40,21.40
2017,05,27,15,41,21.50
2017,05,27,15,42,21.50
2017,05,27,15,43,21.40
2017,05,27,15,44,21.50
2017,05,27,15,45,21.60
2017,05,27,15,46,21.60
2017,05,27,15,47,21.60
2017,05,27,15,48,21.60
2017,05,27,15,49,21.60
2017,05,27,15,50,21.70
2017,05,27,15,51,21.70
2017,05,27,15,52,21.80
2017,05,27,15,53,21.80
2017,05,27,15,54,21.90
2017,05,27,15,55,22.00
2017,05,27,15,56,22.00
2017,05,27,15,57,22.10
2017,05,27,15,58,22.20
2017,05,27,15,59,22.30
2017,05,27,16,00,22.30
2017,05,27,16,01,22.40
2017,05,27,16,02,22.40
2017,05,27,16,03,22.50
2017,05,27,16,04,22.60
2017,05,27,16,05,22.70
2017,05,27,16,06,22.90
2017,05,27,16,07,22.90
2017,05,27,16,08,22.90
2017,05,27,16,09,22.90
2017,05,27,16,10,23.00
2017,05,27,16,11,23.10
2017,05,27,16,12,23.10
2017,05,27,16,13,23.10
2017,05,27,16,14,23.10
2017,05,27,16,15,23.10
2017,05,27,16,16,23.10
2017,05,27,16,17,23.10
2017,05,27,16,18,23.10
2017,05,27,16,19,22.90
2017,05,27,16,20,22.90
2017,05,27,16,21,23.00
2017,05,27,16,22,23.10
2017,05,27,16,23,23.20
2017,05,27,16,24,23.30
2017,05,27,16,25,23.30
2017,05,27,16,26,23.30
2017,05,27,16,27,23.30
2017,05,27,16,28,23.30
2017,05,27,16,29,23.20
2017,05,27,16,30,23.10
2017,05,27,16,31,23.00
2017,05,27,16,32,22.90
2017,05,27,16,33,22.70
2017,05,27,16,34,22.60
2017,05,27,16,35,22.60
2017,05,27,16,36,22.60
2017,05,27,16,37,22.60
2017,05,27,16,38,22.60
2017,05,27,16,39,22.60
2017,05,27,16,40,22.60
2017,05,27,16,41,22.60
2017,05,27,16,42,22.70
2017,05,27,16,43,22.70
2017,05,27,16,44,22.70
2017,05,27,16,45,22.60
2017,05,27,16,46,22.60
2017,05,27,16,47,22.50
2017,05,27,16,48,22.50
2017,05,27,16,49,22.40
2017,05,27,16,50,22.40
2017,05,27,16,51,22.30
2017,05,27,16,52,22.30
2017,05,27,16,53,22.30
2017,05,27,16,54,22.20
2017,05,27,16,55,22.20
2017,05,27,16,56,22.20
2017,05,27,16,57,22.20
2017,05,27,16,58,22.20
2017,05,27,16,59,22.20
2017,05,27,17,00,22.10
2017,05,27,17,01,22.10
2017,05,27,17,02,22.20
2017,05,27,17,03,22.30
2017,05,27,17,04,22.30
2017,05,27,17,05,22.40
2017,05,27,17,06,22.40
2017,05,27,17,07,22.50
2017,05,27,17,08,22.60
2017,05,27,17,09,22.60
2017,05,27,17,10,22.60
2017,05,27,17,11,22.60
2017,05,27,17,12,22.50
2017,05,27,17,13,22.50
2017,05,27,17,14,22.50
2017,05,27,17,15,22.50
2017,05,27,17,16,22.50
2017,05,27,17,17,22.50
2017,05,27,17,18,22.50
2017,05,27,17,19,22.40